Tracking 33404 objects as of 6-Mar-2026
HD Live streaming from Space Station
objects crossing your sky now

STARLINK-35742

Track STARLINK-35742 now!
10-day predictions
STARLINK-35742 is classified as:


NORAD ID: 66276
Int'l Code: 2025-247M
Perigee: 481.6 km
Apogee: 483.1 km
Inclination: 53.2 °
Period: 94.1 minutes
Semi major axis: 6853 km
RCS: Unknown
Launch date: October 31, 2025
Source: United States (US)
Launch site: AIR FORCE WESTERN TEST RANGE (AFWTR)
Your satellite tracking list
Your tracking list is empty




NASA's NSSDC Master Catalog

Two Line Element Set (TLE):
1 66276U 25247M   26064.83591680  .00031372  00000-0  10666-2 0  9992
2 66276  53.1572 209.3421 0001106 105.2245 254.8878 15.30207931 20498
Source of the keplerian elements: AFSPC